カタログに戻る

OPS 4682 DEB

運用中PO
NORAD 38408·DEBRIS·🇺🇸 United States

打ち上げ Apr 3, 1965 から Vandenberg Space Force Base

Loading…

次のパス (今後24時間)

TLE

最新Source: Space-Track

元期: Sep 14, 2026, 13:52 UTC

1 38408U 65027DM  26257.57789927 -.00000028  00000-0 -11164-3 0  9997
2 38408  90.2946  17.8188 0041596 288.9557  70.7061 13.02208934616845

AllMySatでOPS 4682 DEBをリアルタイム追跡

Download on the App Store